User: anonymous   Login
Location: Saddleback Butte
(34.6776°N, 117.8050°W)
Time: 20:40:05
(UTC-07:00)
Language:

Cosmos 1862 Rocket - Orbit

View from above orbital plane
View from above orbital plane
View from above satellite
View from above satellite

Ground track
Ground track

The orbit data is extracted from the following two-line orbital elements,

1 18153U 87055B   17177.31583566 +.00000089 +00000-0 +79401-5 0  9996
2 18153 082.5013 095.9209 0022941 055.8307 304.5078 14.83180386598639
Epoch (UTC): 26 June 2017 07:34:48
Eccentricity: 0.0022941
inclination: 82.5013°
perigee height: 603 km
apogee height: 635 km
right ascension of ascending node: 95.9209°
argument of perigee: 55.8307°
revolutions per day: 14.83180386
mean anomaly at epoch: 304.5078°
orbit number at epoch: 59863

The dashed part of the orbit path shows where the satellite is in the earth's shadow,  

DLR